Location: Unspecified
(0.0000°N, 0.0000°E)
Time: 03:29:24
(UTC+00:00)

ISS - Visible Passes

Search period start: 28 July 2015 00:00
Search period end: 07 August 2015 00:00
Orbit: 402 x 403 km, 51.6° (Epoch: 26 July)

Date Brightness Start Highest point End Pass type
(mag) Time Alt. Az. Time Alt. Az. Time Alt. Az.
28 Jul -1.7 18:32:10 10° SSE 18:34:16 16° SE 18:36:28 10° E visible
28 Jul -0.2 20:08:42 10° W 20:10:36 14° NW 20:10:54 14° NW visible
29 Jul -1.8 19:14:35 10° SW 19:17:39 38° NW 19:20:40 10° NNE visible
31 Jul 0.3 19:07:07 10° WNW 19:08:09 11° NW 19:09:01 10° NW visible
01 Aug 0.1 05:03:41 10° NNE 05:05:16 13° NE 05:06:59 10° E visible
03 Aug -2.3 04:52:37 10° NNW 04:55:45 48° NE 04:58:54 10° SE visible
04 Aug -0.3 04:03:35 16° ENE 04:03:35 16° ENE 04:05:05 10° E visible
04 Aug -1.4 05:37:20 10° W 05:39:09 14° SW 05:40:50 10° SSW visible
05 Aug -1.1 04:48:27 15° S 04:48:27 15° S 04:49:12 10° SSE visible
